KIZUNA (WINDS) 1 32500U 08007A 21057.37362198 -.00000060 00000-0 00000-0 0 9996 2 32500 3.8369 81.2842 0004079 324.4072 238.8037 1.00267285 47472 H-2A R/B 1 32501U 08007B 21057.29241080 .00001344 00000-0 57663-3 0 9999 2 32501 28.1769 126.6581 6926251 190.2176 140.4423 2.72232341120997